Language: 


Des rapports , des résumés tant et plus, au choix de chacun....


Données Historiques de Météogheer
Journalier Rapport pour Février 13, 2018 Unitée:  Impériale    Métrique   Les deux
Suivant Jour »
Journalier Hebdomadaire Mensuel Annuel Sur mesure
  Max: Min: Moyenne:
Température: 44.6 °F 32.7 °F 37.2 °F
Point de rosée: 32 °F 24.8 °F 29.1 °F
Humidité: 91% 49% 73%
Vent: 25.1mph 0mph 8mph
Rafales: 26.4mph - -
Vent- - South
Pression: 29.9 in 29.6 in -
Pluie: 0 in    
Historical Graphs
 
 
Données tabulaires pour Février 13, 2018
Heure Température Point de rosée Pression Vent Vent Rafales Humidité Pluie Taux (Horaire) Conditions
00:04 33.3 °F 30.2 °F 29.9 in Calm   3.4 mph 86% 0 in
00:09 33.3 °F 30.2 °F 29.9 in Calm   3.4 mph 86% 0 in
00:14 33.3 °F 30.2 °F 29.9 in Calm   3.8 mph 87% 0 in
00:19 33.4 °F 30.2 °F 29.9 in Calm   6.3 mph 88% 0 in
00:24 33.4 °F 30.2 °F 29.9 in South 4.5 mph 6.3 mph 88% 0 in
00:29 33.4 °F 30.2 °F 29.9 in South 3.6 mph 6 mph 88% 0 in
00:34 33.6 °F 32 °F 29.9 in Calm   6 mph 89% 0 in
00:39 33.6 °F 32 °F 29.9 in South 3.8 mph 4.9 mph 89% 0 in
00:44 33.6 °F 32 °F 29.9 in South 3.8 mph 6.3 mph 89% 0 in
00:49 33.8 °F 32 °F 29.9 in SSW 2.9 mph 6.3 mph 89% 0 in
00:54 33.8 °F 32 °F 29.9 in Calm   6.3 mph 89% 0 in
00:59 33.8 °F 32 °F 29.9 in South 4.9 mph 6.5 mph 89% 0 in
01:04 34 °F 32 °F 29.9 in Calm   6.5 mph 89% 0 in
01:09 34 °F 32 °F 29.9 in Calm   6.5 mph 89% 0 in
01:14 34 °F 32 °F 29.9 in Calm   7.2 mph 89% 0 in
01:19 34 °F 32 °F 29.9 in SSW 2.5 mph 7.2 mph 89% 0 in
01:24 34 °F 30.2 °F 29.9 in South 3.4 mph 7.4 mph 88% 0 in
01:29 34 °F 30.2 °F 29.9 in South 6.3 mph 7.4 mph 88% 0 in
01:34 34 °F 30.2 °F 29.9 in SSW 6.3 mph 6.5 mph 88% 0 in
01:39 34.2 °F 32 °F 29.9 in SSW 4.3 mph 7.2 mph 88% 0 in
01:44 34 °F 30.2 °F 29.9 in WSW 4.9 mph 7.4 mph 88% 0 in
01:49 34 °F 30.2 °F 29.9 in SSW 2 mph 8.1 mph 88% 0 in
01:54 34.2 °F 32 °F 29.9 in Calm   9.8 mph 88% 0 in
01:59 34.2 °F 32 °F 29.9 in SSW 3.1 mph 9.8 mph 88% 0 in
02:04 34 °F 30.2 °F 29.9 in South 6.3 mph 8.7 mph 88% 0 in
02:09 34 °F 30.2 °F 29.9 in South 7.4 mph 7.8 mph 88% 0 in
02:14 34 °F 30.2 °F 29.9 in SSW 5.6 mph 8.1 mph 88% 0 in
02:20 34 °F 30.2 °F 29.9 in SSW 3.6 mph 8.1 mph 88% 0 in
02:25 34 °F 30.2 °F 29.9 in SSW 6 mph 8.1 mph 88% 0 in
02:30 34 °F 30.2 °F 29.9 in SSE 6.3 mph 7.8 mph 88% 0 in
02:35 33.8 °F 30.2 °F 29.9 in South 5.6 mph 8.1 mph 88% 0 in
02:40 33.8 °F 30.2 °F 29.9 in SSW 7.4 mph 8.1 mph 88% 0 in
02:45 33.8 °F 30.2 °F 29.9 in South 6 mph 7.8 mph 88% 0 in
02:50 33.8 °F 30.2 °F 29.9 in South 3.8 mph 7.8 mph 88% 0 in
02:55 33.6 °F 32 °F 29.9 in South 5.4 mph 7.2 mph 89% 0 in
03:00 33.6 °F 32 °F 29.9 in South 5.6 mph 7.4 mph 89% 0 in
03:05 33.4 °F 32 °F 29.9 in SSW 7.2 mph 8.7 mph 89% 0 in
03:10 33.4 °F 32 °F 29.9 in South 7.4 mph 8.7 mph 89% 0 in
03:15 33.6 °F 32 °F 29.9 in South 9.2 mph 9.2 mph 89% 0 in
03:20 33.6 °F 32 °F 29.9 in SSW 7.8 mph 9.2 mph 89% 0 in
03:25 33.6 °F 32 °F 29.9 in SSW 3.4 mph 9.6 mph 89% 0 in
03:30 33.6 °F 32 °F 29.9 in SSW 5.8 mph 9.6 mph 89% 0 in
03:35 33.6 °F 32 °F 29.9 in SSW 5.4 mph 9.6 mph 89% 0 in
03:40 33.8 °F 30.2 °F 29.9 in SSW 6.3 mph 9.6 mph 88% 0 in
03:45 33.8 °F 30.2 °F 29.9 in South 6.3 mph 10.3 mph 88% 0 in
03:50 33.8 °F 30.2 °F 29.9 in Calm   12.3 mph 88% 0 in
03:55 33.8 °F 30.2 °F 29.9 in SSW 4.9 mph 12.3 mph 88% 0 in
04:00 33.8 °F 30.2 °F 29.9 in South 11.4 mph 12.3 mph 87% 0 in
04:05 34 °F 30.2 °F 29.9 in SSE 8.1 mph 12.3 mph 87% 0 in
04:10 33.8 °F 30.2 °F 29.9 in South 4.9 mph 9.2 mph 87% 0 in
04:15 33.8 °F 30.2 °F 29.9 in SSW 6.5 mph 9.6 mph 87% 0 in
04:21 33.8 °F 30.2 °F 29.9 in South 6.5 mph 12.5 mph 87% 0 in
04:26 33.8 °F 30.2 °F 29.9 in South 5.8 mph 12.5 mph 87% 0 in
04:31 33.6 °F 30.2 °F 29.9 in South 5.4 mph 10.7 mph 87% 0 in
04:36 33.6 °F 30.2 °F 29.9 in South 6.3 mph 9.4 mph 87% 0 in
04:41 33.4 °F 30.2 °F 29.9 in South 7.4 mph 9.6 mph 88% 0 in
04:46 33.4 °F 30.2 °F 29.8 in South 4.3 mph 9.6 mph 88% 0 in
04:51 33.4 °F 30.2 °F 29.8 in South 5.8 mph 12.1 mph 88% 0 in
04:56 33.4 °F 30.2 °F 29.8 in SSW 4.3 mph 12.1 mph 88% 0 in
05:01 33.4 °F 32 °F 29.8 in SSW 4 mph 10.3 mph 89% 0 in
05:06 33.3 °F 30.2 °F 29.8 in SSW 4 mph 9.4 mph 89% 0 in
05:11 33.3 °F 30.2 °F 29.8 in South 4.9 mph 11 mph 89% 0 in
05:16 33.3 °F 30.2 °F 29.8 in South 5.4 mph 11 mph 89% 0 in
05:21 33.3 °F 30.2 °F 29.8 in SSW 7.8 mph 10.3 mph 89% 0 in
05:26 33.3 °F 30.2 °F 29.8 in SSE 5.4 mph 11 mph 89% 0 in
05:31 33.3 °F 30.2 °F 29.8 in South 6 mph 11 mph 89% 0 in
05:36 33.3 °F 30.2 °F 29.8 in SSE 5.4 mph 9.6 mph 89% 0 in
05:41 33.3 °F 30.2 °F 29.8 in South 5.4 mph 8.7 mph 89% 0 in
05:46 33.3 °F 30.2 °F 29.8 in SSW 7.8 mph 8.7 mph 89% 0 in
05:51 33.3 °F 30.2 °F 29.8 in SSW 4.9 mph 10.3 mph 89% 0 in
05:56 33.1 °F 30.2 °F 29.8 in South 8.1 mph 10.3 mph 89% 0 in
06:01 33.1 °F 30.2 °F 29.8 in South 7.8 mph 8.7 mph 90% 0 in
06:06 33.1 °F 30.2 °F 29.8 in SSE 5.4 mph 8.9 mph 90% 0 in
06:11 32.9 °F 30.2 °F 29.8 in South 3.8 mph 8.9 mph 90% 0 in
06:16 32.7 °F 30.2 °F 29.8 in SSW 5.8 mph 8.1 mph 90% 0 in
06:21 32.7 °F 30.2 °F 29.8 in SSE 5.8 mph 8.5 mph 90% 0 in
06:27 32.7 °F 30.2 °F 29.8 in South 7.6 mph 8.5 mph 91% 0 in
06:32 32.7 °F 30.2 °F 29.8 in SSW 4.3 mph 11 mph 91% 0 in
06:37 32.7 °F 30.2 °F 29.8 in SSW 6.3 mph 11 mph 91% 0 in
06:42 32.9 °F 32 °F 29.8 in SSW 6.3 mph 11 mph 91% 0 in
06:47 32.9 °F 32 °F 29.8 in SSE 11.2 mph 11.2 mph 91% 0 in
06:52 32.9 °F 32 °F 29.8 in South 6.5 mph 12.3 mph 91% 0 in
06:57 32.9 °F 32 °F 29.8 in SSE 2.7 mph 12.3 mph 91% 0 in
07:02 32.9 °F 32 °F 29.8 in SSE 5.4 mph 12.1 mph 91% 0 in
07:07 32.9 °F 32 °F 29.8 in South 7.8 mph 12.5 mph 91% 0 in
07:12 32.9 °F 32 °F 29.8 in SSE 6.3 mph 12.5 mph 91% 0 in
07:17 32.7 °F 30.2 °F 29.8 in South 4.5 mph 12.1 mph 91% 0 in
07:22 32.9 °F 32 °F 29.8 in SSW 5.6 mph 11 mph 91% 0 in
07:27 32.9 °F 32 °F 29.8 in SSE 9.2 mph 12.3 mph 91% 0 in
07:32 32.9 °F 30.2 °F 29.8 in SSE 5.8 mph 12.3 mph 90% 0 in
07:37 32.9 °F 30.2 °F 29.8 in South 7.4 mph 10.7 mph 90% 0 in
07:42 32.9 °F 30.2 °F 29.8 in South 9.6 mph 12.5 mph 90% 0 in
07:47 32.9 °F 30.2 °F 29.8 in SE 9.2 mph 12.5 mph 90% 0 in
07:52 33.1 °F 32 °F 29.8 in SSE 5.6 mph 11.9 mph 91% 0 in
07:57 33.1 °F 32 °F 29.8 in South 9.6 mph 10.3 mph 91% 0 in
08:02 33.1 °F 30.2 °F 29.8 in SSE 8.5 mph 12.3 mph 90% 0 in
08:07 33.1 °F 30.2 °F 29.8 in South 6.3 mph 12.3 mph 90% 0 in
08:12 33.1 °F 30.2 °F 29.8 in SSE 5.6 mph 10.3 mph 90% 0 in
08:17 33.1 °F 30.2 °F 29.8 in SSE 4.9 mph 10.3 mph 90% 0 in
08:22 33.1 °F 30.2 °F 29.8 in South 5.6 mph 10.5 mph 90% 0 in
08:27 33.3 °F 30.2 °F 29.8 in SSW 6 mph 13 mph 90% 0 in
08:32 33.4 °F 32 °F 29.8 in South 7.6 mph 13 mph 90% 0 in
08:37 33.6 °F 32 °F 29.8 in South 8.7 mph 12.5 mph 90% 0 in
08:42 33.8 °F 32 °F 29.8 in SSW 4 mph 12.5 mph 89% 0 in
08:47 34 °F 32 °F 29.8 in SSE 5.6 mph 14.8 mph 89% 0 in
08:52 34.3 °F 32 °F 29.8 in South 9.6 mph 14.8 mph 88% 0 in
08:57 34.5 °F 32 °F 29.8 in South 5.4 mph 14.5 mph 88% 0 in
09:02 34.9 °F 32 °F 29.8 in SSE 9.8 mph 12.3 mph 87% 0 in
09:08 35.1 °F 32 °F 29.8 in SSE 6 mph 12.3 mph 86% 0 in
09:13 35.4 °F 32 °F 29.8 in South 8.7 mph 12.3 mph 86% 0 in
09:18 35.6 °F 32 °F 29.7 in South 8.5 mph 17 mph 84% 0 in
09:23 35.8 °F 32 °F 29.7 in South 6.3 mph 17 mph 83% 0 in
09:28 36 °F 32 °F 29.7 in SSE 6 mph 15.2 mph 82% 0 in
09:33 36.3 °F 32 °F 29.8 in South 6.3 mph 13.9 mph 81% 0 in
09:38 36.7 °F 32 °F 29.8 in SSW 12.5 mph 13.9 mph 80% 0 in
09:43 36.9 °F 32 °F 29.8 in SSW 10.1 mph 13 mph 79% 0 in
09:48 36.9 °F 30.2 °F 29.7 in SW 12.3 mph 15.4 mph 78% 0 in
09:53 37 °F 32 °F 29.7 in South 10.3 mph 16.1 mph 78% 0 in
09:58 37 °F 32 °F 29.7 in SSE 10.5 mph 15.9 mph 77% 0 in
10:03 37 °F 32 °F 29.7 in SSW 10.7 mph 23.9 mph 77% 0 in
10:08 37.2 °F 32 °F 29.7 in South 6.3 mph 23.9 mph 77% 0 in
10:14 37.4 °F 30.2 °F 29.7 in SSE 10.3 mph 17.9 mph 76% 0 in
10:19 37.6 °F 30.2 °F 29.7 in SSW 9.4 mph 17.9 mph 76% 0 in
10:24 37.8 °F 32 °F 29.7 in SSE 12.1 mph 19.2 mph 75% 0 in
10:29 38.3 °F 32 °F 29.7 in South 7.4 mph 19.2 mph 74% 0 in
10:34 38.3 °F 32 °F 29.7 in South 13.9 mph 15.2 mph 74% 0 in
10:39 38.3 °F 30.2 °F 29.7 in South 11.2 mph 17.2 mph 73% 0 in
10:44 38.7 °F 30.2 °F 29.7 in South 9.6 mph 17.2 mph 73% 0 in
10:49 38.7 °F 30.2 °F 29.7 in SSW 7.6 mph 19.7 mph 72% 0 in
10:54 39 °F 32 °F 29.7 in South 8.7 mph 19.7 mph 72% 0 in
10:59 39.4 °F 30.2 °F 29.7 in SSW 5.6 mph 17.7 mph 71% 0 in
11:04 39.4 °F 30.2 °F 29.7 in South 13 mph 17.7 mph 70% 0 in
11:09 39.2 °F 30.2 °F 29.7 in South 11 mph 17.4 mph 68% 0 in
11:14 39.6 °F 30.2 °F 29.7 in SSW 10.7 mph 19.9 mph 68% 0 in
11:19 39.7 °F 30.2 °F 29.7 in SSW 7.6 mph 22.4 mph 68% 0 in
11:24 39.9 °F 30.2 °F 29.7 in SSW 12.8 mph 22.4 mph 68% 0 in
11:29 39.7 °F 30.2 °F 29.7 in SSW 8.5 mph 14.8 mph 68% 0 in
11:34 39.7 °F 30.2 °F 29.7 in South 13 mph 16.6 mph 66% 0 in
11:39 39.7 °F 30.2 °F 29.7 in South 11 mph 22.1 mph 65% 0 in
11:44 39.7 °F 28.4 °F 29.7 in South 22.1 mph 22.1 mph 64% 0 in
11:49 40.1 °F 30.2 °F 29.7 in South 11.2 mph 22.1 mph 65% 0 in
11:54 40.1 °F 30.2 °F 29.7 in South 10.5 mph 21 mph 65% 0 in
11:59 40.3 °F 30.2 °F 29.7 in SSW 17 mph 18.6 mph 64% 0 in
12:04 41 °F 30.2 °F 29.7 in SSW 7.8 mph 22.4 mph 62% 0 in
12:09 41.2 °F 28.4 °F 29.7 in SSE 15.2 mph 22.4 mph 60% 0 in
12:14 41.7 °F 30.2 °F 29.7 in SSW 15.4 mph 19.7 mph 61% 0 in
12:19 42.4 °F 30.2 °F 29.7 in SSE 19.2 mph 19.2 mph 59% 0 in
12:25 42.6 °F 28.4 °F 29.7 in SSW 10.7 mph 22.6 mph 57% 0 in
12:30 42.6 °F 28.4 °F 29.7 in South 14.8 mph 23.9 mph 56% 0 in
12:35 42.8 °F 28.4 °F 29.7 in SSE 19.5 mph 23.9 mph 57% 0 in
12:40 42.8 °F 28.4 °F 29.7 in SSW 18.6 mph 22.6 mph 56% 0 in
12:45 42.6 °F 28.4 °F 29.7 in South 13 mph 22.6 mph 57% 0 in
12:50 42.3 °F 28.4 °F 29.7 in SSE 14.8 mph 26.2 mph 57% 0 in
12:55 42.1 °F 28.4 °F 29.7 in SSW 7.8 mph 26.2 mph 57% 0 in
13:00 41.9 °F 28.4 °F 29.7 in SSE 15.4 mph 23 mph 58% 0 in
13:05 42.1 °F 28.4 °F 29.7 in SSW 14.8 mph 22.6 mph 57% 0 in
13:10 42.1 °F 28.4 °F 29.7 in South 12.8 mph 22.6 mph 57% 0 in
13:15 42.3 °F 28.4 °F 29.7 in SSW 8.7 mph 22.6 mph 57% 0 in
13:20 42.3 °F 26.6 °F 29.7 in SSW 13 mph 26.4 mph 55% 0 in
13:25 42.3 °F 28.4 °F 29.7 in SSW 15.2 mph 26.4 mph 56% 0 in
13:30 42.3 °F 28.4 °F 29.7 in SSW 10.7 mph 23.9 mph 56% 0 in
13:35 42.3 °F 26.6 °F 29.7 in SSW 14.5 mph 23.9 mph 55% 0 in
13:40 42.3 °F 26.6 °F 29.7 in South 22.1 mph 23.7 mph 55% 0 in
13:45 42.6 °F 28.4 °F 29.7 in South 15.2 mph 23.7 mph 54% 0 in
13:50 43.2 °F 28.4 °F 29.7 in South 10.7 mph 22.1 mph 53% 0 in
13:55 43.3 °F 26.6 °F 29.7 in South 17 mph 22.4 mph 52% 0 in
14:00 43.5 °F 26.6 °F 29.7 in South 15.2 mph 22.4 mph 52% 0 in
14:05 43.7 °F 28.4 °F 29.7 in South 19.9 mph 19.9 mph 52% 0 in
14:10 44.1 °F 28.4 °F 29.7 in South 15.4 mph 19.9 mph 52% 0 in
14:15 44.4 °F 28.4 °F 29.7 in South 20.1 mph 20.1 mph 52% 0 in
14:20 44.6 °F 28.4 °F 29.7 in SSW 13.9 mph 20.1 mph 51% 0 in
14:25 44.6 °F 28.4 °F 29.7 in SSW 10.5 mph 22.1 mph 51% 0 in
14:30 44.2 °F 26.6 °F 29.6 in South 25.1 mph 25.1 mph 51% 0 in
14:36 44.2 °F 26.6 °F 29.6 in South 12.8 mph 25.1 mph 50% 0 in
14:41 44.2 °F 26.6 °F 29.6 in SSW 12.5 mph 21.5 mph 51% 0 in
14:46 44.2 °F 26.6 °F 29.6 in South 15.2 mph 20.6 mph 51% 0 in
14:51 44.4 °F 28.4 °F 29.6 in SSW 8.7 mph 20.6 mph 51% 0 in
14:56 43.7 °F 26.6 °F 29.6 in SSW 10.1 mph 19 mph 50% 0 in
15:01 43.7 °F 26.6 °F 29.7 in South 12.8 mph 24.4 mph 49% 0 in
15:06 44.2 °F 26.6 °F 29.7 in SSE 12.8 mph 24.4 mph 50% 0 in
15:11 44.4 °F 26.6 °F 29.7 in South 13.6 mph 17.4 mph 50% 0 in
15:16 44.4 °F 26.6 °F 29.7 in South 12.3 mph 18.8 mph 50% 0 in
15:21 44.2 °F 26.6 °F 29.7 in SSE 12.3 mph 20.1 mph 50% 0 in
15:26 43.3 °F 26.6 °F 29.7 in South 8.7 mph 20.1 mph 50% 0 in
15:31 42.6 °F 26.6 °F 29.7 in SSE 13.4 mph 22.6 mph 50% 0 in
15:36 42.4 °F 26.6 °F 29.7 in SSE 9.6 mph 22.6 mph 52% 0 in
15:41 42.3 °F 26.6 °F 29.7 in South 6.3 mph 17.2 mph 52% 0 in
15:46 42.1 °F 26.6 °F 29.7 in SSE 12.8 mph 16.3 mph 51% 0 in
15:51 42.3 °F 26.6 °F 29.7 in South 8.5 mph 16.3 mph 51% 0 in
15:56 42.3 °F 26.6 °F 29.7 in SSE 17.4 mph 19.7 mph 52% 0 in
16:01 42.3 °F 26.6 °F 29.7 in SSE 10.5 mph 19.7 mph 54% 0 in
16:06 42.3 °F 26.6 °F 29.7 in SSW 12.8 mph 17 mph 54% 0 in
16:11 42.3 °F 26.6 °F 29.7 in South 6.3 mph 21.5 mph 53% 0 in
16:16 42.3 °F 26.6 °F 29.7 in SSW 14.8 mph 21.5 mph 52% 0 in
16:21 42.1 °F 26.6 °F 29.7 in SSW 7.8 mph 15.4 mph 53% 0 in
16:26 42.1 °F 26.6 °F 29.7 in SSE 8.1 mph 15.2 mph 53% 0 in
16:31 41.7 °F 26.6 °F 29.7 in South 15.9 mph 23 mph 53% 0 in
16:36 41.5 °F 26.6 °F 29.7 in South 13.4 mph 23 mph 54% 0 in
16:41 41.2 °F 26.6 °F 29.7 in South 23.9 mph 25.5 mph 54% 0 in
16:46 40.8 °F 26.6 °F 29.7 in SSE 11.4 mph 25.5 mph 55% 0 in
16:51 40.6 °F 26.6 °F 29.7 in SSW 17.4 mph 23.9 mph 56% 0 in
16:52 40.6 °F 26.6 °F 29.7 in SSE 8.1 mph 21 mph 56% 0 in
16:58 40.5 °F 26.6 °F 29.7 in SSE 12.1 mph 19.5 mph 57% 0 in
17:03 40.5 °F 24.8 °F 29.7 in SSE 11.9 mph 17.9 mph 55% 0 in
17:08 40.5 °F 26.6 °F 29.7 in South 6 mph 17.9 mph 56% 0 in
17:13 40.3 °F 26.6 °F 29.7 in SSE 6.9 mph 17.7 mph 56% 0 in
17:18 40.3 °F 24.8 °F 29.6 in South 9.2 mph 17.7 mph 55% 0 in
17:23 40.1 °F 24.8 °F 29.6 in SSE 8.5 mph 18.8 mph 54% 0 in
17:28 40.1 °F 24.8 °F 29.6 in South 13.2 mph 18.8 mph 55% 0 in
17:33 40.1 °F 24.8 °F 29.7 in SSE 6 mph 17.7 mph 53% 0 in
17:38 40.1 °F 24.8 °F 29.7 in SSE 12.8 mph 17.7 mph 54% 0 in
17:43 40.1 °F 24.8 °F 29.7 in SSE 12.1 mph 13 mph 54% 0 in
17:48 39.9 °F 24.8 °F 29.7 in SSE 10.7 mph 13 mph 54% 0 in
17:53 39.9 °F 24.8 °F 29.7 in SSE 7.2 mph 14.1 mph 53% 0 in
17:58 39.9 °F 24.8 °F 29.7 in SE 5.4 mph 14.1 mph 53% 0 in
18:03 39.9 °F 24.8 °F 29.7 in SSE 8.7 mph 12.3 mph 53% 0 in
18:08 39.9 °F 24.8 °F 29.7 in SSE 15.7 mph 15.7 mph 53% 0 in
18:13 39.9 °F 24.8 °F 29.7 in South 7.4 mph 15.7 mph 53% 0 in
18:18 39.9 °F 24.8 °F 29.6 in South 5.8 mph 18.6 mph 54% 0 in
18:24 39.9 °F 24.8 °F 29.6 in SSE 10.7 mph 18.6 mph 55% 0 in
18:29 39.9 °F 24.8 °F 29.7 in SSE 7.8 mph 15.9 mph 54% 0 in
18:34 39.7 °F 24.8 °F 29.7 in SSE 13.6 mph 15.9 mph 54% 0 in
18:39 39.7 °F 24.8 °F 29.7 in SSE 4.9 mph 17.4 mph 55% 0 in
18:44 39.7 °F 24.8 °F 29.7 in SSE 8.1 mph 17.4 mph 55% 0 in
18:49 39.6 °F 24.8 °F 29.7 in South 8.1 mph 15.7 mph 56% 0 in
18:54 39.6 °F 26.6 °F 29.7 in South 3.8 mph 15.7 mph 57% 0 in
18:59 39.4 °F 26.6 °F 29.6 in SSE 4 mph 14.8 mph 58% 0 in
19:04 39.4 °F 26.6 °F 29.6 in South 8.5 mph 14.8 mph 59% 0 in
19:09 39.4 °F 26.6 °F 29.6 in SSE 5.8 mph 15.4 mph 59% 0 in
19:14 39.4 °F 26.6 °F 29.7 in SSE 6.5 mph 15.4 mph 59% 0 in
19:19 39.2 °F 26.6 °F 29.7 in South 7.2 mph 12.3 mph 59% 0 in
19:24 39.2 °F 26.6 °F 29.7 in SSE 6.3 mph 15.2 mph 59% 0 in
19:29 39.2 °F 26.6 °F 29.7 in South 8.1 mph 15.2 mph 59% 0 in
19:34 39.2 °F 26.6 °F 29.7 in SE 7.8 mph 14.5 mph 58% 0 in
19:39 39 °F 26.6 °F 29.7 in South 10.3 mph 13.2 mph 59% 0 in
19:44 38.8 °F 26.6 °F 29.7 in ESE 7.8 mph 13.2 mph 59% 0 in
19:49 38.8 °F 26.6 °F 29.7 in SSE 11 mph 13.2 mph 59% 0 in
19:54 38.8 °F 26.6 °F 29.7 in SSW 6.5 mph 13.2 mph 59% 0 in
19:59 38.8 °F 26.6 °F 29.7 in SE 7.4 mph 13.2 mph 59% 0 in
20:04 38.7 °F 26.6 °F 29.7 in South 7.4 mph 13 mph 59% 0 in
20:09 38.7 °F 26.6 °F 29.7 in South 12.8 mph 12.8 mph 59% 0 in
20:14 38.7 °F 26.6 °F 29.7 in SSE 6.5 mph 12.8 mph 59% 0 in
20:19 38.5 °F 26.6 °F 29.7 in SSE 8.7 mph 12.5 mph 59% 0 in
20:24 38.3 °F 26.6 °F 29.7 in SSE 6.3 mph 12.3 mph 60% 0 in
20:29 38.1 °F 26.6 °F 29.7 in SSE 6 mph 12.3 mph 60% 0 in
20:35 38.1 °F 26.6 °F 29.7 in SSE 5.8 mph 11 mph 61% 0 in
20:40 37.9 °F 26.6 °F 29.7 in South 1.6 mph 11 mph 62% 0 in
20:45 37.9 °F 26.6 °F 29.7 in South 4.9 mph 10.3 mph 62% 0 in
20:50 38.1 °F 26.6 °F 29.7 in SSW 4.5 mph 10.3 mph 62% 0 in
20:55 37.9 °F 26.6 °F 29.7 in SSE 7.6 mph 9.8 mph 63% 0 in
21:00 37.9 °F 26.6 °F 29.7 in South 6.3 mph 8.9 mph 64% 0 in
21:05 37.9 °F 26.6 °F 29.7 in South 3.8 mph 7.4 mph 64% 0 in
21:10 37.9 °F 26.6 °F 29.7 in Calm   8.7 mph 64% 0 in
21:15 37.9 °F 28.4 °F 29.7 in South 6.3 mph 8.7 mph 66% 0 in
21:20 37.8 °F 28.4 °F 29.7 in SW 4.3 mph 7.6 mph 67% 0 in
21:25 37.6 °F 28.4 °F 29.7 in South 4 mph 7.8 mph 69% 0 in
21:30 37.6 °F 28.4 °F 29.7 in South 6 mph 9.4 mph 70% 0 in
21:35 37.4 °F 30.2 °F 29.7 in SSW 7.8 mph 9.8 mph 71% 0 in
21:40 37.2 °F 30.2 °F 29.7 in South 4.7 mph 9.8 mph 72% 0 in
21:45 37 °F 30.2 °F 29.7 in SSW 5.8 mph 10.1 mph 73% 0 in
21:50 36.9 °F 30.2 °F 29.7 in South 6.3 mph 10.1 mph 73% 0 in
21:55 36.7 °F 30.2 °F 29.7 in SSE 5.4 mph 10.3 mph 74% 0 in
22:00 36.7 °F 30.2 °F 29.7 in South 2.5 mph 12.5 mph 74% 0 in
22:05 36.5 °F 30.2 °F 29.7 in SSE 3.4 mph 12.5 mph 75% 0 in
22:11 36.1 °F 30.2 °F 29.7 in South 6.5 mph 10.5 mph 76% 0 in
22:15 36 °F 30.2 °F 29.7 in SSE 2.2 mph 10.5 mph 77% 0 in
22:21 36 °F 30.2 °F 29.7 in SSW 7.6 mph 10.5 mph 77% 0 in
22:26 36 °F 30.2 °F 29.7 in Calm   9.4 mph 77% 0 in
22:31 35.8 °F 30.2 °F 29.7 in Calm   10.1 mph 77% 0 in
22:36 35.6 °F 30.2 °F 29.7 in South 6.9 mph 10.1 mph 77% 0 in
22:41 35.6 °F 30.2 °F 29.7 in SSE 4.5 mph 10.7 mph 77% 0 in
22:46 35.4 °F 30.2 °F 29.7 in SSE 4.9 mph 11.9 mph 78% 0 in
22:51 35.4 °F 30.2 °F 29.7 in SSE 6 mph 11.9 mph 78% 0 in
22:56 35.2 °F 28.4 °F 29.7 in SSE 8.5 mph 12.8 mph 78% 0 in
23:01 35.2 °F 28.4 °F 29.7 in South 4 mph 12.8 mph 78% 0 in
23:06 35.1 °F 28.4 °F 29.7 in SSE 5.8 mph 8.7 mph 78% 0 in
23:11 35.1 °F 28.4 °F 29.7 in SSE 3.6 mph 8.7 mph 78% 0 in
23:16 35.1 °F 28.4 °F 29.7 in SSE 4 mph 9.4 mph 78% 0 in
23:21 35.1 °F 28.4 °F 29.7 in SSE 4.7 mph 9.4 mph 78% 0 in
23:26 34.9 °F 28.4 °F 29.7 in SSE 3.1 mph 8.1 mph 78% 0 in
23:31 34.9 °F 28.4 °F 29.7 in SSE 4.9 mph 7.8 mph 78% 0 in
23:36 34.9 °F 28.4 °F 29.7 in SSW 7.6 mph 8.1 mph 78% 0 in
23:41 34.7 °F 28.4 °F 29.7 in SSE 7.2 mph 8.1 mph 78% 0 in
23:47 34.7 °F 28.4 °F 29.7 in Calm   7.2 mph 78% 0 in
23:52 34.5 °F 28.4 °F 29.7 in Calm   5.8 mph 78% 0 in
23:57 34.5 °F 28.4 °F 29.7 in SSE 6.5 mph 8.7 mph 78% 0 in
Données Historique de Météo Turbie

Mise a jour : 18/06/2018 01:51:13
Généré par Cumulus 1.9.4 (1099)